When you browse on this site, cookies collect data to enhance your experience and personalize the content and advertising you see.
Visit our Privacy Policy to learn more. By continuing to use the site, you agree to this use of cookies and data.
  • Em Portugal
  • Lista de países
  • Para 7 dias
  • Temperatura da água
  • Mapas de satélite
  • Mapa do tempo
  • Widgets de tempo
  • user-avatar
    Iniciar Sessão

    Previsão horária em Trzebiszyn

    Hoje, 18 Fevereiro, Segunda-feira

    Tempo Temperatura Precipitação Vento Pressão Humidade
    00:00 +4°C° 0 mm 2 m/s 760 mmHg 95%
    01:00 +4°C° 0 mm 2 m/s 760 mmHg 95%
    02:00 +3°C° 0 mm 2 m/s 760 mmHg 95%
    03:00 +3°C° 0 mm 2 m/s 759 mmHg 95%
    04:00 +2°C° 0 mm 3 m/s 759 mmHg 95%
    05:00 +2°C° 0 mm 3 m/s 759 mmHg 95%
    06:00 +2°C° 0 mm 3 m/s 759 mmHg 94%
    07:00 +2°C° 0 mm 3 m/s 758 mmHg 92%
    08:00 +3°C° 0 mm 3 m/s 758 mmHg 86%
    09:00 +4°C° 0 mm 4 m/s 758 mmHg 81%
    10:00 +5°C° 0 mm 4 m/s 758 mmHg 76%
    11:00 +6°C° 0 mm 4 m/s 758 mmHg 71%
    12:00 +7°C° 0 mm 4 m/s 758 mmHg 66%
    13:00 +8°C° 0 mm 4 m/s 757 mmHg 62%
    14:00 +8°C° 0 mm 4 m/s 757 mmHg 63%
    15:00 +9°C° 0 mm 3 m/s 757 mmHg 64%
    16:00 +9°C° 0 mm 3 m/s 756 mmHg 65%
    17:00 +8°C° 0 mm 3 m/s 756 mmHg 69%
    18:00 +7°C° 0 mm 3 m/s 756 mmHg 74%
    19:00 +5°C° 0 mm 3 m/s 755 mmHg 79%
    20:00 +4°C° 0 mm 3 m/s 755 mmHg 80%
    21:00 +4°C° 0 mm 3 m/s 755 mmHg 81%
    22:00 +4°C° 0 mm 3 m/s 755 mmHg 83%
    23:00 +3°C° 0 mm 3 m/s 754 mmHg 83%

    Amanhã, 19 Fevereiro, Terça-feira

    Tempo Temperatura Precipitação Vento Pressão Humidade
    00:00 +3°C° 0 mm 3 m/s 754 mmHg 84%
    01:00 +3°C° 0 mm 3 m/s 753 mmHg 85%
    02:00 +3°C° 0 mm 3 m/s 753 mmHg 85%
    03:00 +3°C° 0 mm 4 m/s 752 mmHg 85%
    04:00 +3°C° 0 mm 4 m/s 752 mmHg 84%
    05:00 +3°C° 0 mm 4 m/s 752 mmHg 86%
    06:00 +1°C° 0 mm 4 m/s 751 mmHg 88%
    07:00 +1°C° 0 mm 5 m/s 751 mmHg 89%
    08:00 +2°C° 0 mm 5 m/s 751 mmHg 86%
    09:00 +3°C° 0 mm 5 m/s 751 mmHg 82%
    10:00 +4°C° 0 mm 6 m/s 751 mmHg 79%
    11:00 +5°C° 0.1 mm 6 m/s 751 mmHg 79%
    12:00 +5°C° 0.1 mm 6 m/s 751 mmHg 80%
    13:00 +7°C° 0.1 mm 6 m/s 751 mmHg 80%
    14:00 +7°C° 0.3 mm 6 m/s 751 mmHg 81%
    15:00 +5°C° 0.3 mm 6 m/s 751 mmHg 81%
    16:00 +6°C° 0.3 mm 5 m/s 751 mmHg 81%
    17:00 +5°C° 0.1 mm 6 m/s 751 mmHg 81%
    18:00 +5°C° 0.1 mm 6 m/s 751 mmHg 81%
    19:00 +4°C° 0.1 mm 6 m/s 751 mmHg 81%
    20:00 +4°C° 0.2 mm 6 m/s 751 mmHg 81%
    21:00 +4°C° 0.2 mm 6 m/s 751 mmHg 82%
    22:00 +4°C° 0.2 mm 6 m/s 751 mmHg 82%
    23:00 +3°C° 0.1 mm 6 m/s 752 mmHg 84%

    Depois de amanhã, 20 Fevereiro, Quarta-feira

    Tempo Temperatura Precipitação Vento Pressão Humidade
    00:00 +3°C° 0.1 mm 6 m/s 752 mmHg 85%
    01:00 +2°C° 0.1 mm 6 m/s 752 mmHg 87%
    02:00 +2°C° 0 mm 6 m/s 752 mmHg 87%
    03:00 +2°C° 0 mm 7 m/s 752 mmHg 86%
    04:00 +2°C° 0 mm 7 m/s 753 mmHg 86%
    05:00 +2°C° 0.1 mm 7 m/s 753 mmHg 86%
    06:00 +2°C° 0.1 mm 7 m/s 753 mmHg 86%
    07:00 +2°C° 0.1 mm 7 m/s 753 mmHg 86%
    08:00 +2°C° 0.1 mm 6 m/s 754 mmHg 85%
    09:00 +2°C° 0.1 mm 6 m/s 754 mmHg 84%
    10:00 +3°C° 0.1 mm 6 m/s 755 mmHg 83%
    11:00 +3°C° 0.1 mm 6 m/s 755 mmHg 81%
    12:00 +4°C° 0.1 mm 6 m/s 755 mmHg 78%
    13:00 +4°C° 0.1 mm 6 m/s 756 mmHg 75%
    14:00 +6°C° 0 mm 5 m/s 756 mmHg 75%
    15:00 +6°C° 0 mm 5 m/s 756 mmHg 76%
    16:00 +6°C° 0 mm 4 m/s 756 mmHg 76%
    17:00 +5°C° 0.1 mm 4 m/s 756 mmHg 79%
    18:00 +5°C° 0.1 mm 3 m/s 756 mmHg 82%
    19:00 +5°C° 0.1 mm 3 m/s 757 mmHg 85%
    20:00 +5°C° 0.2 mm 3 m/s 757 mmHg 86%
    21:00 +5°C° 0.2 mm 3 m/s 756 mmHg 88%
    22:00 +5°C° 0.2 mm 4 m/s 756 mmHg 89%
    23:00 +5°C° 0.3 mm 4 m/s 756 mmHg 88%

    21 Fevereiro, Quinta-feira

    Tempo Temperatura Precipitação Vento Pressão Humidade
    00:00 +5°C° 0.3 mm 5 m/s 756 mmHg 87%
    01:00 +5°C° 0.3 mm 5 m/s 756 mmHg 87%
    02:00 +4°C° 0.7 mm 6 m/s 755 mmHg 88%
    03:00 +4°C° 0.7 mm 6 m/s 755 mmHg 89%
    04:00 +4°C° 0.7 mm 6 m/s 755 mmHg 90%
    05:00 +4°C° 0.3 mm 6 m/s 755 mmHg 91%
    06:00 +4°C° 0.3 mm 6 m/s 755 mmHg 91%
    07:00 +5°C° 0.3 mm 6 m/s 755 mmHg 92%
    08:00 +5°C° 0.1 mm 6 m/s 756 mmHg 92%
    09:00 +5°C° 0.1 mm 6 m/s 756 mmHg 92%
    10:00 +5°C° 0.1 mm 6 m/s 756 mmHg 92%
    11:00 +5°C° 0.1 mm 6 m/s 756 mmHg 91%
    12:00 +5°C° 0.1 mm 6 m/s 757 mmHg 90%
    13:00 +7°C° 0.1 mm 6 m/s 757 mmHg 89%
    14:00 +5°C° 0 mm 6 m/s 757 mmHg 88%
    15:00 +6°C° 0 mm 5 m/s 758 mmHg 88%
    16:00 +6°C° 0 mm 5 m/s 758 mmHg 87%
    17:00 +6°C° 0 mm 5 m/s 759 mmHg 88%
    18:00 +5°C° 0 mm 4 m/s 759 mmHg 89%
    19:00 +5°C° 0 mm 4 m/s 760 mmHg 89%
    20:00 +5°C° 0 mm 4 m/s 761 mmHg 90%
    21:00 +5°C° 0 mm 3 m/s 761 mmHg 90%
    22:00 +4°C° 0 mm 3 m/s 762 mmHg 91%
    23:00 +4°C° 0 mm 3 m/s 762 mmHg 91%

    22 Fevereiro, Sexta-feira

    Tempo Temperatura Precipitação Vento Pressão Humidade
    00:00 +4°C° 0 mm 3 m/s 763 mmHg 91%
    01:00 +5°C° 0 mm 2 m/s 764 mmHg 92%
    02:00 +4°C° 0 mm 2 m/s 764 mmHg 92%
    03:00 +4°C° 0 mm 2 m/s 765 mmHg 92%
    04:00 +4°C° 0 mm 2 m/s 766 mmHg 92%
    05:00 +3°C° 0 mm 2 m/s 766 mmHg 91%
    06:00 +2°C° 0 mm 2 m/s 767 mmHg 91%
    07:00 +2°C° 0 mm 2 m/s 768 mmHg 91%
    08:00 +2°C° 0 mm 2 m/s 769 mmHg 84%
    09:00 +3°C° 0 mm 2 m/s 770 mmHg 78%
    10:00 +4°C° 0 mm 2 m/s 770 mmHg 71%
    11:00 +4°C° 0 mm 2 m/s 771 mmHg 66%
    12:00 +5°C° 0 mm 2 m/s 771 mmHg 61%
    13:00 +6°C° 0 mm 2 m/s 772 mmHg 56%
    14:00 +6°C° 0 mm 2 m/s 772 mmHg 56%
    15:00 +6°C° 0 mm 2 m/s 772 mmHg 56%
    16:00 +7°C° 0 mm 1 m/s 772 mmHg 56%
    17:00 +5°C° 0 mm 2 m/s 772 mmHg 60%
    18:00 +5°C° 0 mm 2 m/s 772 mmHg 65%
    19:00 +4°C° 0 mm 2 m/s 773 mmHg 69%
    20:00 +3°C° 0 mm 2 m/s 773 mmHg 70%
    21:00 +3°C° 0 mm 2 m/s 773 mmHg 70%
    22:00 +2°C° 0 mm 3 m/s 773 mmHg 71%
    23:00 +2°C° 0 mm 3 m/s 773 mmHg 72%

    23 Fevereiro, Sábado

    Tempo Temperatura Precipitação Vento Pressão Humidade
    00:00 +1°C° 0 mm 3 m/s 772 mmHg 74%
    01:00 +1°C° 0 mm 3 m/s 772 mmHg 75%
    02:00 +2°C° 0 mm 3 m/s 772 mmHg 78%
    03:00 +2°C° 0 mm 3 m/s 772 mmHg 82%
    04:00 +2°C° 0 mm 3 m/s 771 mmHg 86%
    05:00 +3°C° 0 mm 3 m/s 771 mmHg 90%
    06:00 +3°C° 0 mm 3 m/s 771 mmHg 93%
    07:00 +4°C° 0 mm 4 m/s 770 mmHg 97%
    08:00 +5°C° 0 mm 4 m/s 770 mmHg 95%
    09:00 +5°C° 0 mm 4 m/s 770 mmHg 92%
    10:00 +6°C° 0 mm 5 m/s 770 mmHg 90%
    11:00 +7°C° 0 mm 5 m/s 770 mmHg 84%
    12:00 +8°C° 0 mm 5 m/s 769 mmHg 79%
    13:00 +9°C° 0 mm 5 m/s 769 mmHg 73%
    14:00 +9°C° 0 mm 5 m/s 769 mmHg 73%
    15:00 +8°C° 0 mm 5 m/s 769 mmHg 72%
    16:00 +8°C° 0 mm 5 m/s 768 mmHg 72%
    17:00 +7°C° 0 mm 5 m/s 768 mmHg 76%
    18:00 +6°C° 0 mm 4 m/s 768 mmHg 80%
    19:00 +5°C° 0 mm 4 m/s 768 mmHg 84%
    20:00 +5°C° 0 mm 4 m/s 768 mmHg 85%
    21:00 +5°C° 0 mm 4 m/s 768 mmHg 86%
    22:00 +4°C° 0 mm 4 m/s 768 mmHg 87%
    23:00 +4°C° 0 mm 3 m/s 768 mmHg 88%
    Mostrar mais